STARLINK-36361

Last updated on Tue Mar 24 2026 00:02:05 GMT+0000 (Coordinated Universal Time)

1 67900U 26035X 26082.37281932 .00131564 00000+0 67722-3 0 9997 2 67900 97.2874 15.5349 0002502 97.6905 262.4647 15.80815799 6003
UTC large
Height (km)
Speed (km/s)
/
Latitude / Longitude
Inclination (degrees)
Orbital Period (minutes)
Azimuth
Elevation
Range (km)
Doppler Factor

Next 0 passes for location: London (51.5072 / 0.1276)

Sorry there are no passes over London.